[[{"header":{"parameterUnit":"m.s-1","parameterCategory":1,"la1":30.2992,"la2":30.254,"lo1":-89.0895,"lo2":-89.0443,"dy":0.0025,"dx":0.0025,"nx":19,"ny":19,"refTime":"2026-04-15T09:00:00:Z","depth":0,"parameterNumber":2,"parameterNumberName":"U-component_of_WINDS"},"data":[0,0,0,-3.1973,-3.1974,-3.1999,-3.1999,-3.2041,-3.2042,0,0,0,0,0,0,0,0,0,0,0,-3.1972,-3.1972,-3.1973,-3.1974,-3.1999,-3.1999,-3.2041,-3.2042,0,0,0,0,0,0,0,0,0,0,0,-3.1971,-3.1972,-3.1973,-3.1974,-3.1999,-3.1999,-3.2041,-3.2018,0,0,0,0,0,0,0,0,0,0,-3.1992,-3.1997,-3.1972,-3.1973,-3.1974,-3.1999,-3.1999,-3.2017,-3.202,-3.2034,0,-3.2049,0,-3.2046,-3.2045,-3.2045,0,0,0,-3.1969,-3.1995,-3.1996,-3.1973,-3.1974,-3.1999,-3.1986,-3.2019,-3.2022,-3.2038,-3.205,-3.2051,-3.2047,-3.2046,-3.2046,-3.2146,-3.2147,0,0,-3.1967,-3.1979,-3.1994,-3.1999,-3.1995,-3.1985,-3.1987,-3.202,-3.2033,-3.205,-3.2052,-3.2048,-3.2046,-3.2046,-3.2146,-3.2147,0,0,0,-3.1967,-3.1979,-3.1979,-3.1997,-3.2001,-3.1986,-3.1988,-3.2032,-3.2031,-3.2052,-3.2048,-3.2046,-3.2047,-3.2145,-3.2146,-3.2192,0,0,0,-3.1966,-3.1978,-3.1978,-3.1986,-3.2,-3.2017,-3.1999,-3.2029,-3.2032,-3.2048,-3.2046,-3.2047,-3.2144,-3.2146,-3.2189,-3.2211,0,0,0,-3.1968,-3.1978,-3.1984,-3.1987,-3.1998,-3.2016,-3.2017,-3.2029,-3.203,-3.2046,-3.2048,-3.2144,-3.2145,-3.2186,-3.2207,-3.2241,0,0,0,-3.1974,-3.2024,-3.1985,-3.204,-3.1998,-3.2044,-3.2016,-3.205,-3.2069,-3.2047,-3.2144,-3.2146,-3.2185,-3.2204,-3.2238,-3.2272,-3.2287,0,0,-3.2044,-3.2033,-3.2064,-3.203,-3.2087,-3.2039,-3.2103,-3.2108,-3.2099,-3.2131,-3.2133,-3.219,-3.2206,-3.224,-3.2369,-3.2381,0,0,0,-3.2091,-3.2113,-3.2126,-3.2145,-3.2151,-3.2158,-3.2153,-3.2155,-3.2182,-3.2118,-3.2211,-3.2221,-3.224,-3.2256,-3.2266,-3.2282,-3.2154,-3.2154,-3.2153,-3.2206,-3.2192,-3.2243,-3.2233,-3.2251,-3.2246,-3.226,-3.2263,-3.2242,-3.2265,-3.2274,-3.2353,-3.2372,-3.238,-3.2396,-3.2291,-3.2291,-3.2291,-3.2291,-3.2307,-3.2337,-3.2311,-3.235,-3.2335,-3.2369,-3.2367,-3.2352,-3.2381,-3.2345,-3.2361,-3.2323,-3.2393,-3.2407,-3.2295,-3.2294,-3.2294,-3.2293,-3.2293,-3.2381,-3.2393,-3.2395,-3.2422,-3.2444,-3.2432,-3.2461,-3.2447,-3.2433,-3.2449,-3.2457,-3.2457,-3.2454,-3.2454,-3.2455,-3.2455,-3.2455,-3.2455,-3.2456,-3.2456,-3.2457,-3.2484,-3.2496,-3.2507,-3.2519,-3.2516,-3.2526,-3.2533,-3.252,-3.252,-3.2498,-3.2403,-3.2379,-3.246,-3.2459,-3.2459,-3.2458,-3.2458,-3.2562,-3.2536,-3.2577,-3.2588,-3.2602,-3.2625,-3.2607,-3.2629,-3.2635,-3.265,-3.2625,-3.2558,-3.2545,-3.2537,-3.2517,-3.2628,-3.2628,-3.2628,-3.2628,-3.2624,-3.2617,-3.2656,-3.2675,-3.2691,-3.2679,-3.2727,-3.2725,-3.272,-3.2723,-3.2705,-3.2678,-3.267,-3.2662,-3.2651,-3.2632,-3.277,-3.277,-3.277,-3.2689,-3.2683,-3.2726,-3.272,-3.273,-3.2739,-3.2783,-3.2806,-3.2794,-3.2776,-3.2725,-3.2719,-3.2675,-3.2661,-3.264,-3.2624,-3.2589,0,0]},{"header":{"parameterUnit":"m.s-1","parameterCategory":1,"la1":30.2992,"la2":30.254,"lo1":-89.0895,"lo2":-89.0443,"dy":0.0025,"dx":0.0025,"nx":19,"ny":19,"refTime":"2026-04-15T09:00:00:Z","depth":0,"parameterNumber":3,"parameterNumberName":"V-component_of_WINDS"},"data":[0,0,0,4.5351,4.5351,4.5389,4.5389,4.5449,4.5449,0,0,0,0,0,0,0,0,0,0,0,4.5347,4.5348,4.535,4.5352,4.5389,4.5389,4.5449,4.5449,0,0,0,0,0,0,0,0,0,0,0,4.5347,4.5347,4.5348,4.5352,4.5389,4.5389,4.5448,4.5416,0,0,0,0,0,0,0,0,0,0,4.5378,4.5381,4.5347,4.5348,4.5352,4.5389,4.5389,4.5414,4.5418,4.5437,0,4.5456,0,4.5454,4.5454,4.5454,0,0,0,4.5346,4.5378,4.5382,4.5348,4.5352,4.5389,4.537,4.5416,4.542,4.5442,4.5457,4.5459,4.5455,4.5455,4.5455,4.5587,4.5588,0,0,4.5344,4.5357,4.5379,4.5385,4.538,4.5369,4.5371,4.5419,4.5435,4.5457,4.546,4.5456,4.5455,4.5456,4.5586,4.5588,0,0,0,4.5342,4.5356,4.5358,4.5383,4.5389,4.537,4.5373,4.5433,4.5433,4.5461,4.5457,4.5456,4.5456,4.5585,4.5587,4.5644,0,0,0,4.534,4.5355,4.5358,4.5366,4.5388,4.5411,4.5387,4.543,4.5434,4.5456,4.5456,4.5457,4.5584,4.5586,4.564,4.5668,0,0,0,4.5342,4.5355,4.5363,4.5367,4.5383,4.541,4.5412,4.543,4.5432,4.5454,4.5457,4.5584,4.5586,4.5637,4.5663,4.5707,0,0,0,4.5347,4.5412,4.5364,4.5435,4.5383,4.5446,4.5412,4.5458,4.5484,4.5456,4.5585,4.5587,4.5636,4.5659,4.5704,4.5747,4.5766,0,0,4.5436,4.5423,4.5464,4.5422,4.5497,4.5439,4.5522,4.5533,4.5522,4.5566,4.5569,4.5641,4.5662,4.5706,4.5871,4.5887,0,0,0,4.5497,4.5526,4.5543,4.5569,4.558,4.5592,4.5588,4.5593,4.563,4.5548,4.567,4.5682,4.5707,4.5727,4.574,4.5761,4.5597,4.5596,4.5596,4.564,4.5626,4.5693,4.5683,4.5709,4.5706,4.5726,4.5732,4.5707,4.5737,4.5749,4.5851,4.5875,4.5884,4.5907,4.5771,4.5771,4.5771,4.5772,4.5769,4.5809,4.5778,4.5832,4.5816,4.5861,4.5863,4.5845,4.5884,4.5839,4.5861,4.5812,4.5902,4.592,4.5776,4.5775,4.5775,4.5774,4.5774,4.586,4.5877,4.5883,4.5921,4.5952,4.5941,4.5981,4.5965,4.595,4.5972,4.5984,4.5983,4.5979,4.5979,4.5979,4.598,4.598,4.598,4.598,4.5952,4.5957,4.5994,4.6013,4.603,4.6049,4.605,4.6065,4.6078,4.6063,4.6063,4.6036,4.5914,4.5883,4.5986,4.5985,4.5984,4.5984,4.5983,4.6086,4.6054,4.611,4.6127,4.615,4.6183,4.6164,4.6197,4.6208,4.6229,4.6199,4.6111,4.6096,4.6085,4.6059,4.6202,4.6202,4.6202,4.6202,4.6162,4.6154,4.621,4.6238,4.6263,4.6252,4.6318,4.6321,4.6318,4.6324,4.6301,4.6267,4.6257,4.6247,4.6233,4.6209,4.6386,4.6386,4.6386,4.6244,4.6238,4.6296,4.6295,4.6313,4.6329,4.639,4.6424,4.6414,4.6393,4.6328,4.632,4.6264,4.6246,4.6221,4.62,4.6155,0,0]}]]